Location: Newark
(35.6799°N, 139.7636°E)
Time: 23:05:59
(UTC+00:00)

Vanguard 1 Rocket - Pass Details

Date: 17 December 2019
Orbit: 650 x 4226 km, 34.3° (Epoch: 20 January)

Event Time Altitude Azimuth Distance (km) Brightness Sun altitude
Rises 13:27:58 0° 277° (W) 7,496 12.3 -70.6°
Reaches altitude 10° 13:33:46 10° 276° (W) 5,961 11.6 -71.6°
Enters shadow 13:38:18 20° 275° (W) 4,687 11.0 -72.3°
